Wind_Speed
23 19 18 18 19 20 20 18 17 16 15 14 12 9 9 9 10 10 10 10 10 11 11 11 12 12 13 13 13 13 13 13 14 15 15 15 15 15 15 15 15 16
19 18 19 20 20 21 20 19 18 17 16 15 13 11 10 11 12 12 12 12 11 11 11 10 11 11 12 13 13 13 13 13 14 14 15 15 15 15 15 15 15 16
18 18 21 22 21 21 21 20 19 18 16 15 14 13 12 12 13 13 13 13 13 12 12 11 11 11 11 12 13 14 14 14 14 14 15 15 15 15 15 15 15 15
20 19 22 23 23 22 21 21 21 20 18 16 15 14 13 13 14 14 14 14 13 13 13 13 12 12 12 12 13 14 15 15 16 16 16 15 15 15 15 15 15 15
19 19 21 24 25 23 20 20 21 20 19 19 16 14 14 14 14 14 14 14 14 14 15 15 15 14 14 13 13 13 14 15 16 17 17 17 16 16 16 15 15 15
16 19 21 23 25 23 19 19 21 19 19 20 20 17 15 15 15 16 16 15 15 15 15 15 15 16 16 15 14 14 15 15 16 17 17 18 18 17 17 16 16 16
18 20 22 23 24 23 20 17 18 18 18 19 21 20 19 18 18 18 18 18 18 17 16 16 15 16 17 17 16 16 16 16 15 16 16 17 18 19 19 18 18 18
23 23 24 23 22 23 22 19 18 19 19 19 20 22 22 22 22 21 20 20 21 21 20 18 17 17 17 17 18 18 17 17 16 16 16 16 17 18 18 19 19 19
25 24 25 24 23 24 24 22 22 22 22 22 21 22 23 23 24 25 25 24 24 24 23 21 19 18 18 18 18 19 19 19 18 18 17 16 16 16 16 17 17 18
24 21 21 21 20 22 24 24 24 24 25 25 25 24 24 25 25 26 27 27 26 26 26 25 23 20 19 19 20 20 21 21 21 20 19 18 17 17 17 17 17 17
25 21 22 22 20 21 23 24 24 25 25 25 24 24 25 27 28 28 28 29 30 29 28 28 26 23 21 22 22 23 23 23 23 22 22 21 19 19 19 19 18 18
27 26 27 29 26 24 22 21 22 25 27 26 25 24 25 26 28 29 28 28 31 33 31 30 28 26 24 24 25 25 26 26 26 25 24 23 22 22 21 21 20 20
32 32 31 32 33 31 28 27 29 30 30 30 29 28 28 28 28 29 28 27 29 32 32 31 30 29 28 28 27 27 28 29 30 29 28 27 26 25 24 23 23 22
37 38 37 36 36 35 35 36 37 35 33 33 33 32 32 32 31 32 32 31 30 29 29 31 31 30 30 30 30 30 30 31 33 33 32 31 30 29 28 28 28 27
39 40 40 40 39 39 39 40 40 39 38 37 37 37 36 36 35 35 34 34 33 31 31 32 32 32 31 31 32 32 33 33 34 35 36 35 34 32 31 31 32 32
42 42 42 42 41 41 42 42 42 42 42 41 40 41 41 41 40 39 38 37 36 36 35 35 35 35 34 34 34 34 33 34 35 37 39 39 38 36 35 34 34 35
42 42 42 42 43 43 43 44 44 44 44 43 43 43 43 43 43 42 42 42 41 40 39 38 38 37 37 37 38 37 36 36 37 38 39 41 42 40 38 37 36 35
42 42 42 42 42 43 44 45 46 46 46 45 44 43 43 42 42 42 43 43 43 42 42 41 41 40 40 40 40 41 41 40 40 39 38 39 40 40 39 38 36 35
42 41 41 41 41 41 42 42 43 44 44 44 43 42 41 41 41 41 41 42 42 43 43 42 42 43 43 43 43 43 44 44 44 43 41 40 40 40 40 40 40 39
43 43 43 43 43 43 43 42 42 41 42 42 43 43 42 41 41 41 41 41 42 42 42 42 42 43 44 45 45 44 45 46 46 47 47 46 45 44 43 44 44 45
46 46 45 45 44 44 44 44 43 43 44 45 45 46 45 44 44 44 44 43 43 42 42 42 42 43 43 44 46 46 46 47 47 48 48 49 49 48 48 49 49 50
48 47 46 45 45 45 45 45 46 46 47 47 48 48 48 49 49 49 47 45 44 44 43 43 43 43 43 43 45 46 46 46 47 47 48 49 50 51 51 52 53 53
49 48 47 47 46 46 47 48 49 49 49 50 50 50 51 52 52 51 49 47 46 45 45 44 44 44 44 44 44 44 45 45 46 46 47 49 50 51 52 52 53 53
50 49 49 49 49 50 51 51 51 51 51 51 51 52 53 53 52 51 50 49 48 47 46 45 44 44 44 44 44 44 44 45 45 46 47 48 49 50 51 51 51 51
52 52 52 53 54 55 54 54 53 53 52 52 53 54 53 52 51 51 51 50 50 49 48 47 46 46 45 45 45 45 45 45 45 46 47 47 48 49 50 50 50 50
57 57 58 59 59 58 56 55 55 54 54 54 54 53 53 52 51 50 50 50 50 50 49 49 48 48 47 47 47 47 47 47 47 47 47 48 48 48 49 49 49 50
Wind_Direction
272 270 269 278 286 288 286 282 280 277 275 274 273 277 285 287 286 282 278 275 274 275 274 272 271 269 268 266 264 262 261 261 261 260 259 257 255 252 248 245 243 243
271 274 274 279 282 284 282 275 275 275 274 273 272 275 283 288 289 287 284 279 274 272 271 271 273 274 274 274 273 271 268 266 264 262 261 259 258 255 251 247 244 242
271 276 279 281 278 279 279 271 270 273 272 272 274 278 285 291 293 293 290 285 280 276 272 269 269 271 274 275 276 276 275 273 270 267 265 262 261 258 255 252 248 245
271 275 276 276 271 271 274 270 268 270 272 273 276 280 285 290 294 294 292 288 285 282 279 275 272 270 270 272 274 275 275 275 274 271 269 266 264 262 259 256 253 250
275 275 273 275 269 262 263 267 266 269 275 277 277 278 281 284 287 287 286 284 284 285 284 282 280 276 273 271 271 272 273 273 274 273 272 269 265 262 259 257 255 253
281 277 276 277 267 257 259 266 266 268 275 280 280 278 277 278 279 279 280 281 282 283 284 285 286 284 281 277 274 272 272 271 270 270 270 269 267 263 259 255 253 252
281 277 277 276 268 260 261 264 263 265 269 276 281 281 279 277 275 274 274 276 277 277 277 279 282 284 283 281 280 278 276 274 271 268 266 265 265 264 262 259 255 252
279 274 271 273 270 264 261 259 262 264 262 265 271 275 278 278 277 278 277 277 278 278 276 272 272 276 278 279 279 278 277 275 273 270 267 264 263 262 262 261 259 256
284 280 271 269 268 264 258 257 262 262 259 259 262 265 270 273 277 280 282 282 281 280 278 275 272 272 274 274 274 273 272 271 270 268 267 266 265 264 262 261 260 258
286 285 275 271 270 265 261 261 260 259 259 261 260 259 262 265 269 274 278 280 280 278 277 276 276 275 274 273 273 271 269 267 267 267 266 266 266 265 265 263 262 260
282 279 271 272 277 275 271 267 261 259 262 265 265 265 266 265 264 266 270 274 277 277 275 274 275 275 273 273 274 273 270 268 266 265 265 265 264 262 261 260 259 259
278 276 271 270 273 275 272 268 265 265 267 270 272 273 274 273 267 263 264 271 278 276 271 270 271 271 272 273 272 271 271 270 268 265 263 262 261 260 260 259 257 255
278 280 277 273 271 271 269 268 271 272 271 273 276 276 278 279 276 269 267 273 281 275 266 264 267 268 270 271 271 270 271 270 269 267 265 263 262 260 259 259 258 256
281 283 281 278 275 273 271 271 275 276 274 275 277 279 279 279 278 277 274 276 281 277 267 262 264 267 266 266 268 273 274 271 268 268 267 266 266 263 259 257 258 258
280 281 281 281 278 276 276 277 279 280 279 279 279 280 281 280 279 279 279 278 279 278 272 266 266 268 265 264 269 274 274 271 268 268 267 266 265 264 260 257 257 257
277 278 279 279 278 278 278 278 279 279 280 280 280 280 281 282 282 282 281 280 277 275 273 270 270 270 269 268 270 272 272 269 267 266 265 264 263 262 261 261 260 259
275 275 275 276 276 277 276 276 276 276 276 277 278 279 280 280 281 280 280 279 278 276 275 274 273 273 272 272 271 271 270 268 267 265 263 260 258 258 258 260 261 262
272 272 273 274 274 274 275 275 275 275 274 275 276 277 276 276 275 275 274 275 275 275 275 275 275 273 272 271 271 270 269 268 268 267 264 259 257 258 258 257 256 258
270 270 272 272 272 273 274 274 275 274 274 274 274 275 274 274 273 273 272 271 271 272 272 272 272 271 270 270 268 268 268 268 267 267 265 262 260 260 259 256 255 258
269 270 271 271 272 273 273 274 274 275 275 276 276 277 277 276 276 275 274 272 271 270 270 270 268 267 268 268 267 267 266 266 266 265 264 264 263 263 261 260 260 263
269 270 271 272 273 273 273 273 274 275 276 278 279 279 279 279 279 278 276 274 273 271 271 270 268 266 266 266 265 265 265 265 265 265 265 265 265 265 266 265 265 265
269 269 270 271 271 271 272 272 273 275 276 277 278 278 278 279 281 279 276 274 273 271 270 269 268 267 266 265 264 264 265 264 264 264 265 265 266 266 266 267 267 267
267 268 269 269 270 270 271 272 273 273 274 275 276 275 276 278 279 278 276 274 273 272 271 270 270 269 269 268 267 266 266 265 265 265 265 265 266 266 267 267 267 268
265 266 267 268 269 270 272 272 272 271 272 272 272 272 274 276 276 275 274 273 273 272 272 271 271 271 271 271 270 270 269 268 267 267 266 266 266 267 267 268 269 269
262 263 265 267 269 271 272 271 271 270 271 271 270 271 272 272 272 271 271 270 270 270 270 270 270 270 270 270 270 270 270 270 269 269 269 268 268 268 269 269 270 270
264 265 267 268 270 271 271 270 270 270 270 270 269 269 270 270 270 269 268 268 268 268 268 269 269 269 269 269 269 269 270 270 271 271 271 270 270 270 270 270 270 270
Height
5747 5746 5746 5746 5746 5745 5745 5745 5746 5746 5747 5747 5748 5747 5747 5747 5747 5747 5748 5748 5748 5748 5748 5749 5749 5749 5749 5749 5749 5749 5749 5749 5749 5749 5749 5749 5749 5750 5750 5750 5750 5750
5744 5744 5743 5744 5744 5743 5743 5743 5744 5744 5745 5746 5746 5746 5746 5746 5746 5746 5746 5746 5746 5746 5747 5747 5747 5748 5748 5748 5748 5748 5748 5748 5748 5748 5747 5747 5747 5747 5748 5748 5748 5748
5741 5741 5741 5741 5742 5741 5741 5741 5742 5742 5743 5743 5744 5744 5744 5744 5744 5745 5745 5745 5745 5745 5745 5745 5745 5746 5746 5746 5746 5746 5746 5746 5746 5746 5746 5746 5746 5746 5745 5745 5745 5745
5739 5739 5739 5739 5740 5739 5739 5740 5740 5740 5740 5741 5742 5742 5742 5742 5743 5743 5743 5743 5743 5744 5744 5744 5744 5744 5744 5744 5744 5744 5744 5744 5744 5744 5744 5744 5744 5744 5744 5744 5743 5743
5736 5737 5736 5737 5737 5737 5738 5738 5737 5737 5737 5738 5739 5740 5740 5740 5741 5741 5741 5741 5741 5742 5742 5742 5743 5742 5742 5742 5742 5742 5742 5742 5742 5743 5743 5743 5742 5742 5742 5742 5742 5742
5734 5734 5734 5734 5735 5735 5736 5736 5736 5736 5735 5735 5736 5737 5738 5738 5738 5738 5739 5739 5739 5740 5740 5741 5741 5741 5741 5741 5741 5740 5740 5740 5741 5741 5741 5741 5741 5741 5740 5740 5740 5740
5731 5731 5731 5732 5733 5733 5733 5734 5735 5734 5734 5734 5733 5734 5735 5735 5735 5736 5736 5737 5737 5737 5738 5738 5739 5739 5739 5740 5739 5739 5739 5739 5739 5738 5738 5739 5739 5739 5739 5738 5738 5738
5728 5728 5729 5729 5730 5730 5731 5731 5732 5732 5732 5732 5732 5732 5732 5732 5733 5733 5734 5734 5734 5735 5735 5735 5736 5736 5737 5738 5738 5737 5737 5737 5736 5736 5736 5736 5736 5736 5737 5737 5737 5737
5724 5725 5725 5726 5727 5727 5727 5728 5728 5729 5729 5730 5730 5730 5730 5730 5730 5730 5731 5732 5732 5732 5732 5733 5733 5734 5734 5735 5735 5735 5735 5735 5734 5734 5734 5734 5734 5734 5734 5735 5735 5735
5720 5721 5722 5723 5724 5724 5724 5725 5725 5726 5726 5727 5727 5728 5728 5728 5728 5728 5728 5728 5729 5729 5730 5730 5731 5731 5732 5732 5732 5733 5733 5733 5733 5732 5732 5732 5732 5732 5732 5732 5732 5732
5717 5718 5719 5720 5721 5722 5722 5721 5722 5722 5723 5724 5724 5725 5725 5725 5725 5725 5725 5725 5725 5726 5727 5727 5728 5728 5728 5728 5729 5730 5730 5730 5731 5731 5730 5730 5730 5730 5729 5729 5730 5730
5713 5714 5716 5717 5719 5720 5720 5720 5719 5718 5718 5720 5721 5721 5722 5722 5722 5722 5722 5722 5722 5722 5723 5724 5724 5725 5725 5725 5725 5726 5726 5727 5727 5727 5728 5728 5728 5727 5727 5727 5727 5727
5710 5710 5713 5714 5715 5716 5717 5718 5716 5715 5715 5716 5717 5717 5718 5718 5719 5719 5719 5720 5720 5719 5719 5720 5721 5721 5721 5721 5721 5722 5722 5723 5723 5723 5724 5724 5725 5725 5724 5724 5724 5725
5706 5706 5708 5710 5710 5711 5712 5712 5711 5711 5711 5712 5713 5713 5714 5714 5715 5715 5715 5716 5716 5716 5717 5717 5717 5718 5718 5717 5718 5718 5719 5719 5719 5719 5720 5720 5721 5721 5721 5721 5721 5721
5703 5702 5703 5704 5705 5705 5705 5705 5705 5706 5707 5707 5708 5709 5709 5710 5710 5710 5710 5711 5712 5713 5713 5714 5714 5714 5714 5714 5714 5714 5715 5715 5715 5715 5715 5716 5716 5717 5717 5717 5716 5716
5698 5698 5699 5699 5699 5700 5700 5700 5700 5701 5701 5702 5703 5704 5704 5705 5705 5705 5705 5706 5707 5708 5709 5709 5709 5709 5709 5710 5710 5711 5711 5711 5712 5712 5711 5711 5711 5712 5712 5712 5711 5711
5693 5693 5694 5694 5694 5695 5695 5695 5696 5696 5697 5697 5698 5699 5699 5699 5700 5700 5700 5700 5701 5702 5703 5704 5703 5703 5704 5705 5705 5706 5706 5707 5707 5707 5707 5707 5706 5707 5707 5706 5706 5706
5687 5688 5688 5689 5689 5690 5690 5690 5690 5690 5691 5692 5693 5693 5694 5694 5695 5695 5695 5695 5695 5696 5697 5697 5697 5698 5698 5699 5699 5700 5701 5701 5702 5702 5702 5702 5702 5702 5702 5701 5701 5701
5682 5682 5683 5683 5684 5684 5684 5684 5684 5685 5685 5686 5687 5687 5688 5689 5689 5689 5689 5689 5689 5690 5690 5691 5691 5691 5692 5692 5693 5694 5694 5695 5696 5696 5697 5697 5697 5697 5696 5696 5696 5696
5676 5676 5677 5677 5678 5678 5678 5679 5679 5679 5679 5680 5680 5681 5681 5682 5682 5683 5683 5683 5683 5683 5684 5684 5685 5685 5685 5685 5686 5687 5688 5688 5689 5689 5690 5690 5690 5690 5690 5691 5691 5691
5670 5670 5671 5671 5672 5672 5672 5673 5673 5673 5673 5673 5674 5674 5675 5675 5676 5676 5676 5676 5676 5677 5677 5677 5678 5678 5679 5679 5679 5679 5681 5682 5682 5682 5682 5683 5683 5683 5683 5684 5684 5684
5664 5664 5665 5665 5665 5666 5666 5667 5667 5667 5667 5668 5668 5668 5668 5668 5669 5669 5669 5669 5670 5670 5670 5671 5671 5672 5672 5672 5672 5673 5673 5674 5675 5675 5675 5675 5675 5676 5676 5676 5676 5677
5657 5658 5659 5659 5659 5660 5660 5661 5661 5661 5662 5662 5662 5662 5662 5662 5662 5662 5662 5663 5663 5663 5663 5664 5664 5665 5665 5665 5665 5666 5666 5666 5667 5667 5668 5668 5668 5668 5669 5669 5669 5669
5651 5651 5652 5652 5652 5653 5654 5654 5655 5655 5656 5656 5656 5656 5656 5656 5656 5656 5656 5656 5656 5656 5656 5657 5657 5658 5658 5658 5658 5658 5658 5659 5659 5660 5660 5661 5661 5661 5661 5661 5661 5661
5644 5645 5645 5645 5645 5646 5646 5647 5648 5648 5649 5649 5650 5650 5650 5650 5650 5650 5649 5649 5649 5649 5649 5650 5650 5651 5651 5651 5651 5651 5651 5652 5652 5652 5653 5653 5654 5654 5654 5654 5653 5653
5636 5637 5638 5638 5638 5639 5639 5640 5641 5641 5642 5642 5642 5642 5643 5643 5643 5643 5643 5643 5643 5643 5643 5643 5643 5644 5644 5644 5645 5645 5645 5645 5645 5645 5645 5646 5646 5646 5646 5646 5646 5645